Stündliche Wetter Abakumy

Heute, 25 Juni, Freitag

Zeit Temperatur Niederschläge Wind Luftdruck Luftfeuchtigkeit
00:00 +25°C° 0.3 mm 2 m/S 752 mmHg 79%
01:00 +24°C° 0.3 mm 2 m/S 752 mmHg 84%
02:00 +23°C° 0.3 mm 2 m/S 752 mmHg 89%
03:00 +23°C° 0 mm 2 m/S 752 mmHg 89%
04:00 +23°C° 0 mm 2 m/S 751 mmHg 89%
05:00 +23°C° 0 mm 2 m/S 751 mmHg 90%
06:00 +25°C° 0 mm 2 m/S 751 mmHg 83%
07:00 +27°C° 0 mm 3 m/S 751 mmHg 76%
08:00 +29°C° 0 mm 3 m/S 751 mmHg 69%
09:00 +30°C° 0 mm 3 m/S 751 mmHg 62%
10:00 +33°C° 0 mm 3 m/S 751 mmHg 56%
11:00 +34°C° 0 mm 3 m/S 751 mmHg 49%
12:00 +35°C° 0 mm 3 m/S 751 mmHg 46%
13:00 +36°C° 0 mm 3 m/S 751 mmHg 44%
14:00 +36°C° 0 mm 4 m/S 750 mmHg 41%
15:00 +36°C° 0 mm 3 m/S 750 mmHg 44%
16:00 +35°C° 0 mm 3 m/S 749 mmHg 47%
17:00 +35°C° 0 mm 3 m/S 749 mmHg 50%
18:00 +33°C° 0 mm 3 m/S 749 mmHg 58%
19:00 +30°C° 0 mm 3 m/S 749 mmHg 65%
20:00 +28°C° 0 mm 3 m/S 749 mmHg 73%
21:00 +27°C° 0.2 mm 2 m/S 749 mmHg 76%
22:00 +26°C° 0.2 mm 2 m/S 749 mmHg 78%
23:00 +25°C° 0.2 mm 2 m/S 749 mmHg 81%

Morgen, 26 Juni, Samstag

Zeit Temperatur Niederschläge Wind Luftdruck Luftfeuchtigkeit
00:00 +24°C° 0.6 mm 2 m/S 749 mmHg 83%
01:00 +23°C° 0.6 mm 1 m/S 749 mmHg 86%
02:00 +22°C° 0.6 mm 1 m/S 749 mmHg 89%
03:00 +23°C° 0 mm 1 m/S 749 mmHg 88%
04:00 +23°C° 0 mm 1 m/S 749 mmHg 87%
05:00 +23°C° 0 mm 1 m/S 749 mmHg 86%
06:00 +25°C° 0 mm 1 m/S 749 mmHg 82%
07:00 +26°C° 0 mm 1 m/S 749 mmHg 77%
08:00 +27°C° 0 mm 1 m/S 749 mmHg 72%
09:00 +29°C° 0.2 mm 1 m/S 749 mmHg 66%
10:00 +30°C° 0.2 mm 1 m/S 749 mmHg 61%
11:00 +32°C° 0.2 mm 1 m/S 749 mmHg 55%
12:00 +32°C° 0 mm 1 m/S 749 mmHg 54%
13:00 +32°C° 0 mm 1 m/S 749 mmHg 52%
14:00 +32°C° 0 mm 1 m/S 748 mmHg 51%
15:00 +31°C° 1.9 mm 3 m/S 748 mmHg 57%
16:00 +30°C° 1.9 mm 4 m/S 748 mmHg 64%
17:00 +28°C° 1.9 mm 5 m/S 747 mmHg 70%
18:00 +26°C° 3.8 mm 4 m/S 748 mmHg 78%
19:00 +22°C° 3.8 mm 4 m/S 748 mmHg 87%
20:00 +20°C° 3.8 mm 4 m/S 749 mmHg 95%
21:00 +19°C° 0.3 mm 3 m/S 749 mmHg 95%
22:00 +19°C° 0.3 mm 3 m/S 748 mmHg 95%
23:00 +19°C° 0.3 mm 3 m/S 748 mmHg 94%

übermorgen, 27 Juni, Sonntag

Zeit Temperatur Niederschläge Wind Luftdruck Luftfeuchtigkeit
00:00 +19°C° 0 mm 2 m/S 748 mmHg 95%
01:00 +19°C° 0 mm 2 m/S 748 mmHg 95%
02:00 +19°C° 0 mm 1 m/S 748 mmHg 96%
03:00 +19°C° 0 mm 1 m/S 748 mmHg 96%
04:00 +19°C° 0 mm 2 m/S 748 mmHg 96%
05:00 +19°C° 0 mm 2 m/S 747 mmHg 96%
06:00 +20°C° 0 mm 2 m/S 748 mmHg 91%
07:00 +21°C° 0 mm 2 m/S 748 mmHg 86%
08:00 +24°C° 0 mm 2 m/S 748 mmHg 81%
09:00 +25°C° 0 mm 2 m/S 748 mmHg 75%
10:00 +27°C° 0 mm 3 m/S 748 mmHg 69%
11:00 +28°C° 0 mm 3 m/S 748 mmHg 63%
12:00 +28°C° 0.1 mm 3 m/S 748 mmHg 63%
13:00 +28°C° 0.1 mm 4 m/S 748 mmHg 63%
14:00 +28°C° 0.1 mm 4 m/S 748 mmHg 64%
15:00 +28°C° 0.1 mm 4 m/S 748 mmHg 65%
16:00 +28°C° 0.1 mm 4 m/S 748 mmHg 66%
17:00 +27°C° 0.1 mm 4 m/S 747 mmHg 67%
18:00 +26°C° 0 mm 4 m/S 748 mmHg 72%
19:00 +23°C° 0 mm 4 m/S 748 mmHg 78%
20:00 +22°C° 0 mm 4 m/S 748 mmHg 83%
21:00 +21°C° 0 mm 4 m/S 748 mmHg 83%
22:00 +21°C° 0 mm 4 m/S 748 mmHg 84%
23:00 +20°C° 0 mm 5 m/S 748 mmHg 84%

28 Juni, Montag

Zeit Temperatur Niederschläge Wind Luftdruck Luftfeuchtigkeit
00:00 +20°C° 0 mm 4 m/S 748 mmHg 85%
01:00 +19°C° 0 mm 4 m/S 748 mmHg 86%
02:00 +19°C° 0 mm 4 m/S 748 mmHg 87%
03:00 +19°C° 0 mm 4 m/S 748 mmHg 88%
04:00 +19°C° 0 mm 4 m/S 748 mmHg 88%
05:00 +19°C° 0 mm 4 m/S 748 mmHg 89%
06:00 +19°C° 0 mm 5 m/S 748 mmHg 84%
07:00 +20°C° 0 mm 5 m/S 748 mmHg 79%
08:00 +21°C° 0 mm 5 m/S 748 mmHg 75%
09:00 +22°C° 0 mm 5 m/S 748 mmHg 72%
10:00 +22°C° 0 mm 6 m/S 748 mmHg 69%
11:00 +23°C° 0 mm 6 m/S 748 mmHg 66%
12:00 +24°C° 0 mm 6 m/S 748 mmHg 63%
13:00 +24°C° 0 mm 6 m/S 748 mmHg 61%
14:00 +26°C° 0 mm 6 m/S 749 mmHg 58%
15:00 +26°C° 0.1 mm 5 m/S 749 mmHg 59%
16:00 +26°C° 0.1 mm 5 m/S 749 mmHg 59%
17:00 +26°C° 0.1 mm 4 m/S 749 mmHg 60%
18:00 +23°C° 0 mm 4 m/S 749 mmHg 67%
19:00 +21°C° 0 mm 3 m/S 749 mmHg 73%
20:00 +20°C° 0 mm 2 m/S 749 mmHg 80%
21:00 +19°C° 0 mm 2 m/S 749 mmHg 83%
22:00 +18°C° 0 mm 2 m/S 749 mmHg 86%
23:00 +17°C° 0 mm 3 m/S 748 mmHg 88%

29 Juni, Dienstag

Zeit Temperatur Niederschläge Wind Luftdruck Luftfeuchtigkeit
00:00 +17°C° 0 mm 3 m/S 748 mmHg 89%
01:00 +16°C° 0 mm 3 m/S 748 mmHg 90%
02:00 +16°C° 0 mm 3 m/S 748 mmHg 91%
03:00 +16°C° 0 mm 3 m/S 748 mmHg 90%
04:00 +16°C° 0 mm 3 m/S 748 mmHg 89%
05:00 +17°C° 0 mm 3 m/S 748 mmHg 88%
06:00 +18°C° 0 mm 3 m/S 748 mmHg 82%
07:00 +20°C° 0 mm 4 m/S 748 mmHg 75%
08:00 +22°C° 0 mm 4 m/S 748 mmHg 68%
09:00 +22°C° 0.5 mm 4 m/S 748 mmHg 68%
10:00 +23°C° 0.5 mm 4 m/S 748 mmHg 67%
11:00 +23°C° 0.5 mm 5 m/S 748 mmHg 66%
12:00 +23°C° 0.6 mm 4 m/S 748 mmHg 66%
13:00 +23°C° 0.6 mm 4 m/S 748 mmHg 66%
14:00 +23°C° 0.6 mm 4 m/S 748 mmHg 65%
15:00 +22°C° 0.5 mm 3 m/S 748 mmHg 70%
16:00 +23°C° 0.5 mm 2 m/S 748 mmHg 75%
17:00 +21°C° 0.5 mm 2 m/S 748 mmHg 79%
18:00 +20°C° 0.3 mm 2 m/S 748 mmHg 82%
19:00 +19°C° 0.3 mm 2 m/S 748 mmHg 85%
20:00 +18°C° 0.3 mm 2 m/S 748 mmHg 88%
21:00 +18°C° 0 mm 2 m/S 748 mmHg 89%
22:00 +17°C° 0 mm 2 m/S 748 mmHg 89%
23:00 +17°C° 0 mm 2 m/S 748 mmHg 90%

30 Juni, Mittwoch

Zeit Temperatur Niederschläge Wind Luftdruck Luftfeuchtigkeit
00:00 +17°C° 0 mm 2 m/S 748 mmHg 91%
01:00 +17°C° 0 mm 2 m/S 748 mmHg 92%
02:00 +16°C° 0 mm 2 m/S 748 mmHg 94%
03:00 +16°C° 0 mm 2 m/S 748 mmHg 93%
04:00 +17°C° 0 mm 2 m/S 748 mmHg 93%
05:00 +17°C° 0 mm 2 m/S 748 mmHg 92%
06:00 +19°C° 0 mm 3 m/S 748 mmHg 85%
07:00 +20°C° 0 mm 3 m/S 748 mmHg 78%
08:00 +22°C° 0 mm 3 m/S 748 mmHg 71%
09:00 +25°C° 0 mm 3 m/S 748 mmHg 65%
10:00 +26°C° 0 mm 3 m/S 748 mmHg 59%
11:00 +27°C° 0 mm 4 m/S 748 mmHg 54%
12:00 +28°C° 0 mm 4 m/S 748 mmHg 51%
13:00 +29°C° 0 mm 3 m/S 748 mmHg 49%
14:00 +29°C° 0 mm 3 m/S 747 mmHg 46%
15:00 +29°C° 0 mm 3 m/S 747 mmHg 49%
16:00 +29°C° 0 mm 2 m/S 747 mmHg 53%
17:00 +28°C° 0 mm 2 m/S 747 mmHg 56%
18:00 +27°C° 0 mm 2 m/S 747 mmHg 61%
19:00 +25°C° 0 mm 2 m/S 747 mmHg 66%
20:00 +24°C° 0 mm 3 m/S 746 mmHg 72%
21:00 +22°C° 0 mm 3 m/S 746 mmHg 74%
22:00 +21°C° 0 mm 3 m/S 746 mmHg 76%
23:00 +20°C° 0 mm 3 m/S 746 mmHg 78%
Mehr zeigen

Wir brauchen deine Erlaubnis

Meteoprog und unser Service Anbieter werden persönliche Daten aufbewahren, so wie Cookies, Geräte Bezeichnung oder ähnliche Technologien von deinem Gerät und Prozess, so wie Persönliche Daten Inhalte und Werbungen, genauso wie social Media und den Verkehr zu analysieren.

  • Aufbewahrung und/oder Zugang zu deiner Geräte Informationen.

    Cookies, Geräte Bezeichnung oder andere Informationen, können aufbewahrt oder Zugang zu deinem Gerät erhalten, für den Grund, der oben angegeben wird.

  • Personalisierte Werbung und Inhalte, Messungen, Einblick in das Publikum und Produkt Entwicklung.

    Werbungen und Inhalte können personalisiert werden, basierend auf ein Profil. Mehr Daten können besser personalisierte Werbungen und Inhalte hinzufügen. Werbung und Inhalte können gezeigt und gemessen werden. Einblicke über das Publikum, welche die Werbung gesehen haben und den Inhalt, können abgeleitet werden. So wie Daten können genutzt werden, um es zu verbessern oder die Benutzer Erfahrung zu verbessern das System und die Software.

Wenn du “Ich stimme zu” klickst, erlaubst du uns, die Cookies zu benutzen die Geräte Bezeichnung, den Web oder ähnliche Technologien zu benutzen. Deine Settings, können in deinem Gerät bei deinem Browser geändert werden.

Für den bestimmten Zweck, berechtigten Interessen beruhen darauf, mehr als auf den Inhalt. Du kannst mehr darüber in unseren Privaten und Cookie Politik lesen.